This is the latest recevied weather packets stored in our database for station/object CE4TQY-10. If no packets are shown the sender has not sent any weather packets the latest 10 day(s).
| Time | Temp. | Humidity | Pressure | Rain* | Wind** | Luminosity | Snow |
|---|---|---|---|---|---|---|---|
| 1777879167 | 15.56° C | 47% | 1018.9 hPa | - | - | - | - |
| 1777878266 | 15° C | 50% | 1019.2 hPa | - | - | - | - |
| 1777877365 | 15° C | 51% | 1019.3 hPa | - | - | - | - |
| 1777876464 | 15° C | 50% | 1019.3 hPa | - | - | - | - |
| 1777875563 | 15.56° C | 48% | 1019.5 hPa | - | - | - | - |
| 1777874662 | 15.56° C | 47% | 1019.5 hPa | - | - | - | - |
| 1777873762 | 15.56° C | 48% | 1019.7 hPa | - | - | - | - |
| 1777872860 | 15° C | 49% | 1019.9 hPa | - | - | - | - |
| 1777871959 | 15.56° C | 48% | 1020.2 hPa | - | - | - | - |
| 1777871058 | 16.11° C | 48% | 1020.4 hPa | - | - | - | - |
| 1777870158 | 16.11° C | 46% | 1020.7 hPa | - | - | - | - |
| 1777869257 | 16.67° C | 45% | 1020.8 hPa | - | - | - | - |
| 1777868356 | 16.11° C | 47% | 1020.9 hPa | - | - | - | - |
| 1777867455 | 16.11° C | 46% | 1020.6 hPa | - | - | - | - |
| 1777866554 | 16.11° C | 47% | 1020.7 hPa | - | - | - | - |
| 1777865653 | 16.11° C | 46% | 1020.8 hPa | - | - | - | - |
| 1777864752 | 16.11° C | 46% | 1020.6 hPa | - | - | - | - |
| 1777863851 | 16.67° C | 45% | 1020.6 hPa | - | - | - | - |
| 1777862950 | 16.67° C | 42% | 1020.8 hPa | - | - | - | - |
| 1777862050 | 16.67° C | 40% | 1020.9 hPa | - | - | - | - |
| 1777861149 | 17.22° C | 40% | 1020.7 hPa | - | - | - | - |
| 1777860248 | 17.22° C | 37% | 1020.7 hPa | - | - | - | - |
| 1777859347 | 17.78° C | 36% | 1020.6 hPa | - | - | - | - |
| 1777858446 | 17.78° C | 37% | 1020.7 hPa | - | - | - | - |
| 1777857545 | 17.78° C | 37% | 1020.6 hPa | - | - | - | - |
* Rain since midnight (hover to see other rain measurements)
** Current wind speed in m/s (hover to see current wind gust speed)